Printer-friendly version

IAU Minor Planet Center

Minor Planet Center

(64) Angelina

Orbital Elements

The following orbital elements are taken from MPC 25033:
   (64) Angelina
Epoch 2003 Dec. 27.0 TT = JDT 2453000.5  (M-c)          Bowell
M 221.58364              (2000.0)            P               Q
n   0.22423310     Peri.  179.02403     -0.62213907     -0.78270841
a   2.6833021      Node   309.44823     +0.71814819     -0.56157063
e   0.1233930      Incl.    1.30759     +0.31177900     -0.26833929
P   4.40           H    7.67          G   0.48           U   0
From 197 observations at 45 oppositions, 1894-1993, mean residual 0".88.
An explanation of the orbital elements is available.

These orbital elements are also available in forms suitable for loading into a number of popular planetarium-type software programs.


Ephemeris

The following ephemeris is at intervals of five days. A daily ephemeris covering the same time interval is also available.

Date    TT    R. A. (2000) Decl.     Delta      r     Elong.  Phase     V
 
2004 09 22    03 26.98   +20 38.0    1.951    2.654   124.7    18.1    11.8
2004 09 27    03 26.84   +20 40.7    1.894    2.648   129.6    17.0    11.7
2004 10 02    03 26.02   +20 40.8    1.840    2.641   134.7    15.6    11.6
2004 10 07    03 24.49   +20 38.3    1.790    2.635   140.0    14.1    11.5
2004 10 12    03 22.28   +20 33.0    1.745    2.628   145.4    12.4    11.4
2004 10 17    03 19.41   +20 24.8    1.705    2.621   151.0    10.6    11.3
2004 10 22    03 15.94   +20 13.8    1.671    2.615   156.8     8.6    11.2
2004 10 27    03 11.98   +20 00.2    1.643    2.608   162.7     6.5    11.1
2004 11 01    03 07.61   +19 44.1    1.622    2.602   168.7     4.3    11.0
2004 11 06    03 02.98   +19 25.9    1.607    2.596   174.6     2.1    10.9
2004 11 11    02 58.21   +19 06.0    1.600    2.589   177.6     0.9    10.8
2004 11 16    02 53.48   +18 45.2    1.599    2.583   172.3     3.0    10.9
2004 11 21    02 48.93   +18 24.0    1.606    2.576   166.2     5.2    11.0
2004 11 26    02 44.71   +18 03.4    1.620    2.570   160.2     7.5    11.1
2004 12 01    02 40.94   +17 43.9    1.640    2.564   154.2     9.6    11.2
2004 12 06    02 37.72   +17 26.2    1.666    2.557   148.3    11.7    11.3
2004 12 11    02 35.14   +17 10.9    1.698    2.551   142.6    13.6    11.3
2004 12 16    02 33.25   +16 58.4    1.735    2.545   137.0    15.3    11.4
2004 12 21    02 32.08   +16 49.1    1.777    2.539   131.6    16.8    11.5
2004 12 26    02 31.65   +16 43.2    1.822    2.532   126.4    18.2    11.6
2004 12 31    02 31.94   +16 40.6    1.871    2.526   121.3    19.4    11.7
2005 01 05    02 32.95   +16 41.5    1.923    2.520   116.5    20.4    11.7
2005 01 10    02 34.65   +16 45.6    1.977    2.514   111.8    21.3    11.8

Back to Bright Minor Planets

Astronomical Headlines Index


Valid HTML 4.01!